RH
41 40 37 32 28 25 24 23 23 24 23 22 21 19 18 17 16 16 15 15 16 14 15 15 20 30 35 33 34 34 35 35 35 36 36 36 36 36 38 38 37 35 36 39 42 44 45 46 49 51 54 56 61 69 71 67 68 74 77 78 79 80 80 81 78 74 73 77 81 80 78 78 77 79 81 76 72 69 68 69 68 70 70 67 63 59
44 42 34 26 27 26 27 26 25 26 24 22 22 19 19 18 16 17 14 15 15 14 20 25 27 33 34 33 34 34 35 36 35 36 36 36 36 37 38 39 38 37 38 40 43 46 46 48 51 53 56 59 63 69 72 69 67 70 73 74 76 80 81 81 77 74 77 81 83 80 78 77 76 79 82 77 73 71 71 71 72 72 68 62 60 60
44 38 31 28 30 29 28 27 25 26 25 24 23 21 21 19 19 18 15 20 20 15 25 33 30 34 35 33 34 34 35 35 36 37 37 37 37 37 37 37 37 38 39 41 44 48 49 50 52 55 58 60 64 67 67 68 69 70 71 72 75 80 81 79 77 77 80 83 83 81 79 77 76 80 82 78 75 73 73 74 74 71 67 64 63 60
42 35 34 35 33 31 29 27 25 26 26 26 24 24 23 20 21 18 17 30 34 26 32 36 32 34 35 34 35 35 35 37 38 39 38 38 37 37 37 36 37 38 41 44 46 49 50 50 53 56 60 62 65 66 65 67 69 69 70 72 76 80 80 77 78 82 82 82 83 82 80 78 78 82 82 79 77 75 75 75 74 72 68 66 62 58
40 37 38 38 34 33 31 28 27 26 27 27 25 24 23 21 21 19 21 34 39 36 36 34 36 40 36 36 37 35 37 38 39 39 38 37 36 37 38 38 39 40 44 47 48 49 49 50 54 59 61 63 65 65 65 65 65 66 68 73 79 81 80 80 82 84 81 80 82 81 82 81 81 84 83 79 78 77 76 77 76 73 67 63 61 60
43 40 37 36 35 35 33 30 27 26 27 28 26 24 23 22 21 22 27 34 36 39 39 31 37 47 43 40 39 35 37 39 38 39 37 36 36 36 36 36 37 41 44 47 49 50 50 51 54 58 61 61 62 64 64 62 61 64 69 75 80 81 82 84 83 78 76 78 81 82 83 81 81 83 81 78 78 78 78 77 74 71 67 64 64 61
42 42 38 37 37 35 34 32 27 25 27 29 27 23 23 22 21 22 27 31 31 37 42 31 30 48 54 45 40 37 38 40 38 38 37 36 36 35 34 34 36 40 43 45 47 49 51 53 54 56 59 60 61 63 64 63 64 68 73 77 81 84 85 84 80 75 76 80 83 85 86 81 79 80 78 76 77 78 77 74 72 71 68 64 60 55
38 41 40 40 39 36 35 33 29 26 25 27 26 24 24 23 22 22 27 35 38 41 49 40 30 45 57 46 38 38 40 41 40 37 37 35 35 34 34 35 37 40 43 43 44 46 50 54 56 57 59 60 62 66 68 69 70 73 77 80 83 85 83 80 80 79 80 82 84 87 87 83 82 81 78 75 74 74 73 72 73 70 64 59 56 52
35 40 40 41 42 39 34 31 29 26 25 25 25 26 26 26 24 22 25 33 43 50 55 51 38 40 50 45 39 42 43 43 40 35 34 33 33 34 35 36 38 41 43 42 43 46 51 56 58 59 60 61 65 69 71 72 72 71 73 75 79 82 80 80 82 81 82 83 86 87 85 82 82 82 80 77 73 71 69 71 71 66 59 56 54 50
34 38 39 40 42 41 36 31 29 27 27 25 25 27 28 29 27 25 25 26 39 52 52 50 44 38 45 46 44 48 49 41 36 32 31 31 32 34 36 37 39 42 43 42 43 46 51 57 59 61 63 64 67 69 70 70 70 68 69 71 76 80 79 80 81 80 81 85 86 85 82 81 81 81 81 79 74 69 68 71 69 62 56 55 53 48
33 34 38 39 38 39 38 34 30 28 28 26 27 28 29 32 31 31 33 30 39 47 39 41 46 40 41 45 43 44 42 34 30 31 30 30 31 32 35 37 38 42 43 42 43 45 51 57 59 61 65 67 69 70 69 68 69 69 70 72 76 79 76 75 79 80 80 83 84 83 82 82 82 81 81 78 72 68 69 71 66 58 54 53 51 47
32 33 37 39 36 38 40 37 32 29 28 27 27 28 30 33 31 31 35 33 35 35 26 32 46 46 44 43 40 36 31 29 29 30 29 29 31 32 35 37 39 42 44 43 43 44 49 55 58 62 65 67 68 69 68 69 70 70 71 71 73 76 75 75 79 79 80 82 84 84 84 85 83 82 80 75 72 72 73 70 61 54 52 52 49 45
32 33 35 37 37 37 39 38 35 33 30 28 29 29 31 33 31 31 33 34 31 27 26 32 41 51 49 38 36 36 31 29 28 27 28 29 32 34 36 38 40 42 43 43 43 45 49 53 57 60 63 65 67 67 68 70 71 70 68 67 71 75 76 76 76 76 80 82 83 82 84 85 84 81 79 77 77 78 73 66 57 52 51 50 48 44
33 36 34 35 37 36 36 37 35 34 31 28 27 28 30 32 35 35 33 34 31 26 32 38 40 48 46 33 34 36 32 29 27 26 28 30 33 36 37 39 41 42 43 44 44 47 50 53 56 59 61 65 66 67 68 70 71 70 67 68 74 78 79 77 76 78 83 82 80 80 82 85 84 82 82 81 79 75 68 61 55 50 48 48 48 45
33 37 34 32 34 33 34 35 33 32 31 27 27 27 28 29 32 34 33 32 34 36 42 45 44 44 37 30 32 32 29 28 26 27 29 30 34 36 39 41 42 44 45 46 48 50 52 54 57 59 61 66 67 67 69 71 71 69 68 70 73 75 76 75 75 80 84 81 79 81 83 85 84 83 83 79 73 68 63 57 52 46 45 48 48 45
29 32 30 28 30 31 32 34 32 33 33 29 29 27 27 29 31 34 34 32 36 46 56 54 45 42 36 32 34 33 31 29 27 28 30 31 34 36 39 42 44 46 46 49 51 51 52 55 59 61 62 66 67 66 68 69 69 69 70 72 71 69 70 74 79 82 83 81 80 82 84 84 83 83 80 73 66 63 57 53 50 47 48 49 48 45
28 31 30 27 29 30 31 33 32 33 34 32 30 27 25 27 30 32 32 36 37 37 46 49 42 40 37 32 35 35 33 31 31 31 31 32 35 36 39 41 44 46 46 48 51 50 53 56 59 62 63 65 65 65 67 68 69 70 70 71 70 68 70 77 83 83 83 83 81 82 84 84 82 80 74 66 62 59 56 55 55 55 53 50 47 43
30 31 30 26 28 29 30 33 32 33 34 32 28 27 26 26 29 31 32 41 45 36 39 46 45 44 37 31 36 37 34 34 33 33 33 34 36 37 38 39 42 45 46 48 50 51 54 57 60 62 63 64 65 65 68 69 70 70 69 70 69 69 71 76 80 81 84 84 82 81 81 80 78 73 69 66 64 63 62 62 62 61 57 49 43 38
31 30 31 27 27 28 28 33 35 33 31 31 28 27 28 28 28 31 33 40 46 43 42 45 46 48 40 33 37 36 34 35 34 34 36 36 36 36 36 37 40 45 47 47 49 52 55 57 60 63 64 65 65 68 70 70 70 69 68 69 68 67 70 73 75 77 81 82 81 80 79 77 74 71 70 70 69 68 67 66 64 62 56 45 37 34
34 34 36 30 27 28 28 31 34 33 30 31 31 28 29 29 25 27 34 38 41 46 47 44 47 51 40 33 36 34 33 35 34 35 36 35 36 35 35 38 42 44 46 47 50 53 56 58 60 63 65 65 66 70 72 71 70 69 67 68 67 66 68 69 70 73 78 79 79 79 78 76 74 74 75 74 72 71 69 66 62 58 52 43 36 34
34 37 41 36 30 29 29 28 29 31 31 30 30 29 26 26 25 26 31 33 36 46 53 51 51 48 37 32 33 32 33 34 34 35 36 35 36 35 36 40 42 44 45 48 52 56 58 59 60 62 64 65 67 72 73 71 69 68 67 67 66 66 67 67 68 73 77 78 78 78 77 76 77 77 76 73 72 71 68 63 58 55 50 42 37 35
35 39 44 42 33 27 26 25 27 31 32 29 28 29 27 26 27 27 29 31 30 36 48 54 50 42 34 33 32 30 33 34 33 34 35 35 35 36 38 40 43 46 46 49 54 57 58 58 60 62 63 65 69 72 72 70 68 66 67 67 66 66 66 65 69 76 78 77 77 77 77 78 79 77 73 72 72 70 65 61 57 54 49 42 38 37
36 40 44 42 34 31 31 30 31 33 33 30 28 28 29 29 28 27 31 34 29 30 41 46 42 37 36 37 36 33 33 34 35 35 35 36 37 39 41 42 46 50 50 53 56 58 60 61 62 63 64 67 71 71 70 68 66 66 67 67 66 65 66 66 72 78 79 78 77 77 77 79 77 73 72 71 70 67 64 61 59 54 47 41 39 38
35 38 42 44 40 35 32 31 33 34 34 32 30 28 27 27 26 28 35 36 29 31 38 39 38 37 37 41 41 38 37 38 38 37 37 39 42 43 43 46 50 52 53 54 56 59 62 64 64 65 65 68 70 69 67 65 64 65 67 67 65 65 67 69 74 78 78 77 77 77 78 77 74 72 71 70 68 66 64 62 59 53 45 41 41 39
37 42 44 49 47 37 33 36 38 36 34 31 29 27 25 26 26 29 33 31 27 32 36 39 42 40 39 44 46 42 42 43 41 40 40 43 46 44 44 48 51 52 52 53 54 56 59 63 66 66 66 67 69 68 65 62 62 64 67 67 63 64 69 73 76 78 78 77 76 77 77 75 73 71 71 70 68 65 63 62 58 51 43 42 42 40
43 51 50 55 56 44 37 37 35 31 29 27 27 26 24 25 25 27 29 27 28 34 36 39 41 36 37 47 50 46 44 46 45 43 42 44 44 44 45 48 49 50 50 50 51 53 56 62 66 66 64 66 66 66 64 63 62 65 68 66 62 64 72 77 79 80 80 78 77 76 75 73 71 70 70 69 66 63 62 61 56 48 43 43 44 41
49 56 54 54 54 43 34 32 31 30 28 27 27 26 25 26 25 28 30 28 30 35 37 41 40 33 34 45 51 51 47 46 48 47 45 45 44 44 47 47 48 49 48 49 51 52 55 61 64 64 64 66 66 64 65 65 64 66 68 65 61 65 73 80 81 81 82 80 77 74 72 70 69 69 69 67 65 64 62 59 53 47 45 45 45 42
54 60 55 49 48 43 37 36 36 33 29 28 29 27 27 28 29 28 28 29 32 34 37 44 45 37 36 42 48 52 51 49 49 49 47 46 46 46 48 48 48 49 48 48 49 51 55 60 62 62 63 66 66 65 66 66 64 66 68 64 61 64 71 78 82 82 82 80 76 73 71 69 68 68 69 68 66 64 62 57 51 47 47 47 46 43
61 66 60 52 50 45 41 39 38 34 29 29 29 29 28 31 31 28 27 32 34 31 33 43 48 42 39 42 45 48 51 50 50 49 48 47 47 46 47 47 47 47 48 48 49 51 56 60 61 62 64 66 68 67 66 65 63 65 68 65 63 63 66 73 80 82 81 78 75 72 71 70 69 68 69 68 66 64 60 56 51 48 48 48 46 43
64 71 66 58 52 47 43 41 39 33 30 30 29 28 28 31 32 29 31 38 37 32 33 39 44 42 38 42 47 47 47 48 49 50 49 49 47 45 45 46 47 47 47 49 52 55 57 59 60 62 65 66 67 65 65 64 62 64 67 67 65 64 66 72 78 80 79 78 76 72 72 72 70 69 69 67 65 62 59 55 52 50 47 47 47 44
62 70 69 60 53 49 46 43 39 33 31 30 29 27 26 29 32 30 34 40 38 37 41 42 41 40 41 47 53 51 48 48 48 49 49 48 48 46 47 47 47 48 50 52 56 57 57 58 58 60 63 65 65 65 63 61 60 62 66 68 66 66 68 72 76 78 78 78 77 75 75 75 71 69 68 66 63 61 57 55 54 51 48 48 47 43
65 71 69 60 55 53 49 42 37 34 32 30 29 28 28 30 32 32 36 39 37 38 45 45 41 40 44 51 55 53 52 51 50 50 49 49 48 47 48 49 49 51 54 55 57 57 57 57 56 57 60 62 64 65 63 60 59 61 64 66 66 68 69 70 73 75 76 76 77 76 75 73 70 67 66 65 63 60 57 56 55 52 50 49 47 43
73 73 68 61 56 55 51 42 36 34 33 32 31 29 28 30 32 33 35 38 38 40 43 40 36 39 46 52 54 54 53 52 51 51 49 48 49 49 49 50 52 55 57 58 59 60 60 61 60 59 59 60 63 65 65 63 62 62 64 65 67 70 70 69 69 70 71 72 73 72 71 70 68 67 66 65 63 60 58 56 56 54 52 50 46 43
75 72 68 63 57 55 53 46 38 37 36 35 36 36 32 31 32 32 33 36 39 41 41 39 38 43 49 51 52 53 53 51 50 49 47 46 48 50 51 53 55 58 59 60 62 63 65 65 65 64 62 62 64 65 65 65 64 65 65 65 68 69 69 69 70 69 68 68 68 68 67 67 68 68 67 64 62 60 58 57 57 56 54 51 47 43
72 69 67 64 59 58 55 46 39 40 41 39 41 45 44 41 38 36 37 39 41 43 43 41 43 48 51 50 50 52 53 52 49 48 48 46 46 50 54 56 57 58 60 61 63 64 65 65 65 65 64 64 65 64 64 64 64 64 62 60 62 65 66 69 71 70 69 68 67 67 67 68 70 71 69 63 60 59 57 57 58 57 56 53 48 44
68 68 67 63 60 57 51 44 41 43 44 40 40 44 46 44 40 38 37 37 41 45 44 41 44 49 51 52 51 51 53 53 52 52 51 49 48 50 53 55 56 57 58 59 60 61 61 61 61 62 63 64 65 65 64 64 64 62 58 57 59 62 64 66 69 71 70 69 69 70 70 70 72 74 71 64 60 59 58 58 60 60 58 53 48 45
68 68 65 61 62 60 54 49 47 46 45 43 42 43 44 42 39 39 39 36 39 45 45 42 45 49 52 53 52 50 50 52 55 55 53 51 51 52 53 54 55 56 56 57 58 58 59 59 59 61 62 63 64 65 66 66 66 63 58 56 57 61 65 65 67 70 71 71 71 72 73 73 75 76 73 66 62 60 59 61 63 61 58 54 49 46
69 67 63 61 64 65 62 58 54 51 51 49 47 46 45 43 42 43 40 36 38 43 44 43 46 49 52 54 52 49 49 51 53 52 49 48 50 51 52 53 55 57 57 56 55 57 60 61 61 60 61 61 62 64 65 66 67 65 60 57 57 62 66 67 67 70 71 70 71 72 74 75 77 77 72 67 63 60 60 63 63 59 57 55 51 47
65 64 65 66 64 63 63 62 56 53 50 48 47 46 44 44 45 42 37 36 39 42 43 45 48 49 50 52 51 49 49 50 50 48 45 46 49 50 51 53 55 57 58 56 54 56 60 60 58 56 55 55 56 58 60 62 63 62 60 59 60 63 67 68 67 69 70 71 72 75 77 79 80 79 74 70 66 65 66 65 60 56 58 58 53 48
61 62 65 65 63 62 61 58 54 51 49 46 47 48 46 44 41 37 37 41 42 41 42 46 48 49 50 51 50 49 47 46 46 43 40 43 47 49 50 51 53 55 56 55 54 55 55 54 54 54 53 53 52 53 54 55 56 56 57 59 59 61 65 68 68 67 69 70 70 74 77 79 81 80 78 75 71 69 67 62 56 58 61 60 55 48
61 62 63 63 62 61 58 53 51 52 51 48 50 52 48 43 38 37 42 44 41 40 43 46 48 49 50 50 49 48 47 44 43 42 40 42 45 46 48 50 51 53 53 53 54 54 53 52 54 55 55 54 52 51 51 51 51 52 54 56 57 59 62 67 68 67 68 69 69 71 75 79 80 79 78 76 72 69 65 59 58 62 64 60 54 47
63 59 59 61 60 59 59 58 56 55 53 53 55 53 47 42 41 43 45 43 40 43 45 45 46 48 49 47 46 47 48 47 45 44 43 43 44 44 46 49 51 51 51 51 52 53 54 55 56 56 55 54 52 51 50 49 49 50 51 53 57 59 62 67 70 69 69 70 69 69 73 78 79 76 75 73 70 69 65 62 63 66 65 60 53 45
64 59 59 61 60 61 63 61 58 59 58 57 55 50 46 45 45 45 45 43 43 46 47 45 44 45 45 45 45 46 47 47 45 44 43 44 45 46 47 48 49 50 50 50 51 53 55 56 56 56 56 54 53 52 50 49 49 49 49 53 59 61 62 67 72 73 72 71 70 69 71 75 74 73 74 74 73 72 69 66 66 69 67 61 54 45
62 61 62 62 61 63 63 60 61 65 64 60 57 53 50 49 47 46 48 48 46 46 47 46 44 43 43 44 45 46 47 47 45 44 43 44 45 47 49 50 50 50 51 51 53 55 56 56 57 57 57 56 55 54 53 51 50 50 50 55 61 63 63 66 71 73 72 72 71 70 72 75 75 75 75 75 75 76 73 69 67 69 68 63 55 45
63 63 62 61 62 64 63 63 67 69 66 63 62 59 54 52 51 51 51 49 48 47 47 47 46 45 44 44 45 46 46 47 47 46 45 45 45 46 48 50 51 51 52 53 54 55 55 56 57 58 58 58 58 57 56 54 52 51 52 55 61 67 67 66 68 72 73 72 72 71 72 76 78 77 75 72 73 76 74 68 66 66 66 63 56 47
65 67 64 62 65 66 63 63 67 69 69 68 65 63 59 56 55 53 50 49 49 48 46 46 46 45 45 44 44 45 45 45 46 45 45 46 45 46 48 51 53 53 54 55 56 58 59 59 60 60 60 60 60 59 58 56 54 53 53 54 58 67 71 69 67 69 72 72 71 72 74 76 78 77 74 72 73 73 68 64 61 61 61 60 54 47
63 65 66 66 68 68 65 64 66 70 73 71 67 66 64 60 57 54 52 51 50 48 47 47 46 46 46 45 44 44 44 44 44 46 47 46 47 47 49 51 54 55 56 57 59 61 63 63 62 61 61 61 61 61 60 58 55 54 54 53 56 64 71 71 67 66 68 71 71 72 73 74 75 75 73 73 74 70 64 61 59 57 58 58 53 50
60 60 63 66 69 69 68 67 66 68 72 72 69 68 67 63 61 58 56 56 55 54 52 50 49 48 47 45 45 45 46 46 46 47 48 48 48 49 50 52 55 58 60 62 63 65 66 65 63 62 62 63 63 62 61 60 57 55 54 54 55 60 68 72 70 67 68 71 74 73 72 72 73 74 73 74 74 67 61 61 60 57 58 58 54 52
61 58 59 63 65 66 66 67 65 66 69 71 70 69 68 66 64 62 61 61 60 59 58 56 54 53 50 48 49 48 47 48 48 48 49 50 51 52 54 55 59 62 64 66 68 69 70 68 65 64 64 63 63 62 61 60 59 57 56 55 56 59 67 74 75 72 71 73 74 74 72 71 71 72 73 72 70 66 65 65 62 59 59 58 52 48
63 62 64 64 63 63 63 65 64 66 69 69 67 66 66 64 63 63 63 64 63 63 62 60 59 58 55 53 52 50 50 51 52 52 53 54 54 55 57 59 62 65 66 68 69 70 70 68 67 66 65 64 63 63 64 63 62 61 60 57 57 58 64 71 74 72 72 74 74 73 73 71 70 70 70 69 70 72 72 69 64 63 62 57 50 48
63 65 68 68 67 64 62 62 62 64 67 68 65 64 64 62 61 61 62 63 62 62 61 60 59 58 56 54 52 51 50 51 51 52 53 54 54 55 56 57 59 61 63 65 67 68 69 69 68 67 66 65 65 65 65 64 63 62 60 59 58 58 61 67 72 72 72 75 76 75 74 73 73 73 72 71 74 77 78 74 71 69 68 61 55 54